www.pogodaiklimat.ru

Погода и климат >> Архив погоды >> Мексика >> Туспан


ПОГОДА в Туспане

  • Прогноз погоды в Туспане
  • Монитор погоды в Туспане

АРХИВ ПОГОДЫ в Туспане

Время (UTC), дата Ветер
(напр.,м/с)
 
Видим.   Явления Облачность Т
(С)
Тd
(С)
f
(%)
Тe
(С)
Тes
(С)
Комфортность P
(гПа)
Po
(гПа)
Тmin
(С)
Tmax
(С)
R
(мм)
R24
(мм)
S
(см)
18 12.06 ЮЗ 1 8000 м 3/3 540 м
[Cu med, cong]
+33.6 +29.4 79 +59 +77 опасность
перегрева
1014.5 1013.4 +25.4 +34.6
21 12.06 ЮВ 2 8000 м 4/1 540 м
[Cu med, cong Ac trans]
+34.0 +29.8 79 +60 +71 опасность
перегрева
1013.3 1012.1
00 13.06 ЮВ 2 8000 м 8/5 270 м
[Cu med, cong Cs]
+31.2 +29.1 89 +55 +55 опасность
перегрева
1013.0 1011.8 +25.4 +35.4
03 13.06 ЮВ 1 1000 м 8/5 180 м
[Cu med, cong Ac As]
+29.6 +28.3 93 +50 +50 опасность
перегрева
1011.9 1010.8
06 13.06 ЮВ 4 1000 м в посл. час гроза 9/4 100 м
[Cb calv Ac As]
+27.4 +26.3 94 +42 +42 опасность
перегрева
1013.6 1012.5 6
09 13.06 ЮВ 3 1000 м {гроза, дождь} 9/6 120 м
[Cb calv Ac As]
+26.0 +25.2 95 +37 +37 очень
душно
1015.5 1014.3 0.0
12 13.06 ЮВ 3 1000 м сильн. дождь 9/6 90 м
[Cu med, cong Ac As]
+24.6 +24.0 96 +34 +34 очень
душно
1014.7 1013.6 +24.2 +35.4 15
03 14.06 ЮВ 2 1000 м 8/5 150 м
[Frnb As op]
+28.4 +27.3 94 +45 +45 опасность
перегрева
1017.4 1016.2
06 14.06 ЮВ 1 1000 м 8/5 120 м
[Frnb As op]
+27.0 +26.2 95 +41 +41 опасность
перегрева
1017.9 1016.7 +30.0
12 14.06 ЮВ 1 1000 м 3/3 90 м
[St]
+25.4 +24.8 96 +36 +36 очень
душно
1017.3 1016.1 +25.2 +30.0
15 14.06 З 1 8000 м 5/4 240 м
[Sc diur, vesp Ac trans]
+27.8 +25.9 89 +41 +48 опасность
перегрева
1019.0 1017.8
18 14.06 ЮВ 2 8000 м 4/3 540 м
[Cu med, cong Ac trans]
+32.2 +27.9 78 +52 +66 опасность
перегрева
1018.0 1016.9 +24.2 +33.8
21 14.06 ЮВ 2 8000 м ясно +33.6 +28.8 76 +57 +72 опасность
перегрева
1014.9 1013.8
00 15.06 ЮВ 2 8000 м ясно +31.8 +28.0 80 +52 +53 опасность
перегрева
1013.7 1012.6 +24.2 +35.2
03 15.06 ЮВ 2 1000 м ясно +28.6 +27.5 94 +46 +46 опасность
перегрева
1015.4 1014.3
09 15.06 штиль 0 1000 м 3/3 30 м
[Cu med, cong]
+26.8 +26.5 98 +41 +41 опасность
перегрева
1014.9 1013.7
12 15.06 штиль 0 1000 м 3/3 30 м
[Cu med, cong]
+25.4 +25.1 98 +36 +36 очень
душно
1014.8 1013.6 +24.2 +35.4
15 15.06 ЮЗ 1 8000 м 6/3 150 м
[Cu med, cong Ac trans]
+28.0 +26.9 94 +44 +50 опасность
перегрева
1016.0 1014.8
18 15.06 ЮВ 1 8000 м 5/4 450 м
[Cu med, cong Ac trans]
+31.6 +28.1 82 +52 +66 опасность
перегрева
1014.6 1013.5 +24.2 +32.6
21 15.06 ЮВ 2 8000 м 3/1 570 м
[Cu med, cong Cs]
+33.6 +29.1 77 +57 +70 опасность
перегрева
1012.0 1010.8
00 16.06 ЮВ 2 8000 м 3/1 270 м
[Cu med, cong Cs]
+32.2 +30.1 89 +59 +61 опасность
перегрева
1011.2 1010.0 +24.2 +35.0
03 16.06 ЮВ 1 1000 м 4/4 150 м
[Cu med, cong]
+29.6 +28.5 94 +50 +50 опасность
перегрева
1012.6 1011.5
06 16.06 штиль 0 1000 м 3/3 60 м
[Cu med, cong]
+28.0 +27.4 97 +45 +45 опасность
перегрева
1013.3 1012.2 +24.2 +35.0
09 16.06 штиль 0 1000 м ясно +27.0 +26.7 98 +42 +42 опасность
перегрева
1011.9 1010.7
12 16.06 штиль 0 1000 м {гроза} 6/3 30 м
[Sc As op]
+26.0 +25.7 98 +38 +38 очень
душно
1011.0 1009.9 +24.6 +35.0
15 16.06 штиль 0 8000 м 3/0
[Cs]
+28.6 +27.0 91 +45 +57 опасность
перегрева
1013.1 1011.9
18 16.06 ЮВ 1 8000 м 3/1 300 м
[Cu hum Ci]
+32.6 +30.2 87 +60 +82 опасность
перегрева
1011.8 1010.7 +24.6 +33.8
21 16.06 Ю 1 8000 м 1/1 400 м
[Cu hum]
+33.8 +30.9 85 +64 +80 опасность
перегрева
1010.7 1009.5
00 17.06 ЮВ 2 8000 м 3/3 240 м
[Cu hum]
+32.2 +30.4 90 +60 +61 опасность
перегрева
1009.1 1008.0 +24.6 +35.0
03 17.06 ЮВ 1 1000 м 4/1 120 м
[Cu med, cong]
+30.0 +28.9 94 +52 +52 опасность
перегрева
1010.5 1009.4
06 17.06 штиль 0 1000 м 4/4 60 м
[Cu med, cong]
+28.8 +28.2 97 +48 +48 опасность
перегрева
1011.6 1010.4 +24.6 +35.0
09 17.06 штиль 0 1000 м 5/5 60 м
[Cu med, cong]
+28.6 +28.0 97 +47 +47 опасность
перегрева
1011.2 1010.0
12 17.06 штиль 0 1000 м дымка 8/4 30 м
[Sc As op]
+28.2 +27.9 98 +46 +46 опасность
перегрева
1011.4 1010.3 +26.6 +35.0
15 17.06 ЮЗ 1 8000 м мгла {туман} 8/5 180 м
[Cu med, cong As trans]
+29.4 +28.1 93 +49 +53 опасность
перегрева
1012.3 1011.1
18 17.06 ЮЗ 1 8000 м мгла {туман} 5/3 400 м
[Cu Sc As trans]
+33.6 +30.7 85 +63 +78 опасность
перегрева
1011.6 1010.5 +26.6 +34.6
21 17.06 ЮВ 1 8000 м 4/1 400 м
[Cu med, cong As trans]
+33.8 +30.9 85 +64 +77 опасность
перегрева
1010.6 1009.4
00 18.06 ЮВ 2 8000 м 5/3 150 м
[Cu med, cong As trans]
+32.0 +31.0 94 +62 +63 опасность
перегрева
1009.6 1008.5 +26.6 +35.6
03 18.06 штиль 0 1000 м 5/5 120 м
[Cu hum]
+29.6 +28.8 95 +51 +51 опасность
перегрева
1013.2 1012.0
06 18.06 штиль 0 1000 м 8/8 90 м
[Cu med, cong]
+28.8 +28.3 97 +48 +48 опасность
перегрева
1014.2 1013.1 +26.6 +35.6
09 18.06 штиль 0 1000 м 5/5 90 м
[Cu med, cong]
+28.6 +28.0 97 +47 +47 опасность
перегрева
1011.6 1010.5
12 18.06 ЮВ 1 1000 м 6/5 60 м
[Cu med, cong As trans]
+28.4 +28.1 98 +47 +47 опасность
перегрева
1012.1 1011.0 +27.2 +35.6
15 18.06 ЮВ 2 8000 м дымка {туман} 6/5 210 м
[Cu med, cong Ac trans]
+30.0 +28.4 91 +51 +55 опасность
перегрева
1014.8 1013.6
18 18.06 ЮВ 2 8000 м {морось} 6/4 500 м
[Sc diur, vesp As trans]
+32.8 +28.8 80 +56 +66 опасность
перегрева
1014.3 1013.2 +27.2 +34.4 0.0
21 18.06 ЮВ 2 8000 м 5/3 570 м
[Cu med, cong As trans]
+33.4 +28.9 77 +56 +65 опасность
перегрева
1012.6 1011.5
00 19.06 ЮВ 2 8000 м 4/3 400 м
[Cu med, cong As trans]
+32.0 +29.1 85 +56 +57 опасность
перегрева
1011.8 1010.7 +27.2 +35.0
03 19.06 СВ 1 1000 м 8/5 210 м
[Cu med, cong As op]
+29.6 +28.0 91 +49 +49 опасность
перегрева
1011.5 1010.4
06 19.06 СВ 1 1000 м 8/5 120 м
[Cu med, cong As op]
+28.6 +27.8 95 +47 +47 опасность
перегрева
1013.8 1012.7 +35.0
09 19.06 СВ 1 1000 м 8/5 <50 м
[Cu med, cong As op]
+28.0 +27.5 97 +45 +45 опасность
перегрева
1014.8 1013.7
12 19.06 СВ 1 1000 м 3/3 60 м
[Cu hum]
+27.2 +26.9 98 +42 +42 опасность
перегрева
1013.6 1012.5 +27.0 +35.0

 

Местоположение метеостанции Туспан (Мексика): широта 20.95 долгота -97.40 высота над уровнем моря 28 м.

В архиве по умолчанию представлена погода в Туспане за последнюю неделю. Архивные данные за месяц целиком и за предыдущие месяцы, начиная с января 2011 года, Вы можете получить, выбрав интересующий диапазон дат из раскрывающегося списка и нажав кнопку "Ввод!".


*Определитесь, кто Вы:
робот инопланетянин человек

Внимание! Время в таблицах - всемирное. Для получения местного времени необходимо прибавить поправку, которая равна -6 ч.

Смотрите также архив погоды в соседних городах и на ближайших метеорологических станциях:

Погода в Тулансинго (Мексика) (140 км)
Погода в Тампико (Мексика) (147 км)
Погода в Маталапе (Мексика) (152 км)
Погода в Халапе (Мексика) (164 км)
Погода в Пачуке (Мексика) (168 км)
Погода в Тамуине (Мексика) (183 км)
Погода в Тлашкале (Мексика) (202 км)
Погода в Тлашкала аэропорту (Мексика) (202 км)
Погода в Пуэбле (Мексика) (226 км)
Погода в Кордове (Мексика) (233 км)

Пояснения к столбцам:

Ветер - указаны скорость ветра в м/с - средняя за 10 мин, порывы в срок и между сроками (в фигурных скобках) и направление, откуда дует ветер: С - северный, СВ - северо-восточный, В - восточный, ЮВ - юго-восточный, Ю - южный, ЮЗ - юго-западный, З - западный, СЗ - северо-западный.
Видимость - горизонтальная дальность видимости в метрах или километрах. При видимости от 1 до 10 км при отсутствии осадков обычно наблюдается дымка, при ухудшении видимости до 1 км и менее - туман. В сухую погоду видимость может ухудшаться дымом, пылью или мглою.
Явления - указаны атмосферные явления, наблюдавшиеся в срок или в последний час перед сроком; фигурными скобками обозначены явления, наблюдавшиеся между сроками (за 1-3 часа до срока); квадратными скобками обозначены град или гололедные отложения с указанием их диаметра в мм.
Облачность - указаны через наклонную черту общая и нижняя облачность в баллах и высота нижней границы облаков в метрах; квадратными скобками обозначены формы облаков: Ci - перистые, Cs - перисто-слоистые, Cc - перисто-кучевые, Ac - высококучевые, As - высокослоистые, Sc - слоисто-кучевые, Ns - слоисто-дождевые, Cu - кучевые, Cb - кучево-дождевые. Подробнее классификацию облаков см. в Атласе облаков (PDF).
T - Температура воздуха - температура, измеренная на высоте 2 м над землей.
Td - Температура точки росы - температура, при понижении до которой содержащийся в воздухе водяной пар достигнет насыщения.
f - Относительная влажность воздуха - влажноcть воздуха, измеренная на высоте 2 м над землей.
Te - Эффективная температура - температура, которую ощущает одетый по сезону человек в тени. Характеристика душности погоды. При расчете учитывается влияние влажности воздуха и скорости ветра на теплоощущения человека.
Tes - Эффективная температура на солнце - температура, которую ощущает человек, с поправкой на солнечный нагрев. Характеристика знойности погоды. Зависит от высоты солнца над горизонтом, облачности и скорости ветра. Ночью, в пасмурную погоду, а также при ветре 12 м/с и более поправка равна нулю.
P - Атмосферное давление - приведенное к уровню моря атмосферное давление.
Po - Атмосферное давление - измеренное на уровне метеостанции атмосферное давление.
Tmin - Минимальная температура - минимум температуры воздуха на высоте 2 м над землей.
Tmax - Максимальная температура - максимум температуры воздуха на высоте 2 м над землей.
R - Количество осадков - Количество выпавших осадков за период времени, мм. При наведении курсора мыши на число - период времени, за который выпало указанное количество осадков.
R24 - Количество осадков - Количество выпавших осадков за 24 часа, мм.
S - Снежный покров - Высота снежного покрова, см. При наведении курсора мыши на число - состояние снежного покрова и степень покрытия местности в баллах.